This demonstration page uses our WeatherBlox Daily Observations layout. Learn more.

Left ArrowRight Arrow

Hourly Observations for May 26, 2022

Temp ( °F °C ) Dew Point ( °F °C ) Humidity (%) Winds ( mph kmh ) Pressure ( in mb ) Visibility ( mi km ) Precip ( " mm )
12:53 am 00:53 Mostly Cloudy 77 25 61 16.1 58 58 VRB 5 7 29.95 1014 10 16 0.00 0.00
1:53 am 01:53 Clear 75 23.9 61 16.1 62 62 VRB 6 9 29.96 1015 10 16 0.00 0.00
2:53 am 02:53 Mostly Cloudy 74 23.3 62 16.7 67 67 VRB 7 11 29.95 1014 10 16 0.00 0.00
3:53 am 03:53 Cloudy 73 22.8 62 16.7 69 69 VRB 3 6 29.94 1014 10 16 0.00 0.00
4:53 am 04:53 Cloudy 73 22.8 62 16.7 69 69 VRB 6 9 29.94 1014 10 16 0.00 0.00
5:53 am 05:53 Cloudy 73 22.8 63 17.2 71 71 undefined N/A 29.94 1014 10 16 0.00 0.00
6:53 am 06:53 Cloudy with Light Rain 71 21.7 63 17.2 76 76 VRB 5 7 29.96 1014 10 16 0.00 0.00
7:49 am 07:49 Cloudy with Light Rain 70 21 64 18 83 83 VRB 6 9 29.95 1014 10 16 0.01 0.25
7:53 am 07:53 Cloudy with Light Rain 69 20.6 64 17.8 84 84 VRB 5 7 29.96 1015 10 16 0.01 0.25
8:53 am 08:53 Cloudy 69 20.6 65 18.3 87 87 VRB 5 7 29.96 1015 10 16 0.00 0.00
9:53 am 09:53 Cloudy with Light Rain 69 20.6 65 18.3 87 87 VRB 3 6 29.96 1015 10 16 0.00 0.00
10:53 am 10:53 Cloudy 70 21.1 66 18.9 87 87 VRB 5 7 29.95 1014 10 16 0.01 0.25
11:53 am 11:53 Cloudy 72 22.2 65 18.3 79 79 VRB 5 7 29.93 1014 10 16 0.00 0.00
12:33 pm 12:33 undefined 72 22.2 65 18.3 79 79 VRB 5 7 29.91 1013 10 16 0.00 0.00
12:53 pm 12:53 undefined 74 23.3 65 18.3 74 74 S 8 13 29.90 1013 10 16 0.00 0.00
1:30 pm 13:30 Cloudy 75 23.9 66 18.9 74 74 VRB 5 7 29.88 1012 10 16 0.00 0.00
1:38 pm 13:38 Cloudy 74 23.3 65 18.3 74 74 VRB 7 11 29.87 1011 10 16 0.00 0.00
1:53 pm 13:53 Cloudy with Light Rain 73 22.8 66 18.9 79 79 VRB 7 11 29.87 1012 10 16 0.00 0.00
2:26 pm 14:26 Cloudy with Rain 69 20.6 67 19.4 93 93 SW 8 13 29.88 1012 10 16 0.30 7.62
2:33 pm 14:33 Cloudy with Rain 68 20 65 18.3 90 90 VRB 5 7 29.89 1012 10 16 0.32 8.13
2:53 pm 14:53 Cloudy with Light Rain 67 19.4 65 18.3 93 93 Calm 29.88 1012 10 16 0.35 8.89
3:53 pm 15:53 Cloudy 69 20.6 66 18.9 90 90 Calm 29.89 1012 10 16 0.03 0.76
4:01 pm 16:01 Cloudy 69 20.6 66 18.9 90 90 VRB 3 6 29.88 1012 10 16 0.00 0.00
4:23 pm 16:23 Cloudy 68 20 65 18.3 90 90 N 6 9 29.87 1011 10 16 0.00 0.00
4:53 pm 16:53 Mostly Cloudy 67 19.4 64 17.8 91 91 NNE 7 11 29.87 1011 10 16 0.00 0.00
5:19 pm 17:19 Cloudy 67 19.4 64 17.8 91 91 NE 3 6 29.87 1011 10 16 0.00 0.00
5:53 pm 17:53 Cloudy with Light Rain 67 19.4 64 17.8 91 91 E 3 6 29.86 1011 10 16 0.02 0.51
6:06 pm 18:06 Cloudy with Light Rain 67 19.4 65 18.3 93 93 E 3 6 29.86 1011 10 16 0.00 0.00
6:53 pm 18:53 Cloudy with Light Rain 67 19.4 65 18.3 93 93 E 3 6 29.83 1010 10 16 0.08 2.03
7:33 pm 19:33 Cloudy 67 19.4 65 18.3 93 93 ESE 3 6 29.83 1010 10 16 0.00 0.00
7:38 pm 19:38 Cloudy 67 19.4 65 18.3 93 93 E 5 7 29.82 1010 10 16 0.00 0.00
7:53 pm 19:53 Cloudy with Light Rain 68 20 66 18.9 93 93 E 8 13 29.81 1009 10 16 0.00 0.00
8:10 pm 20:10 Cloudy 68 20 66 18.9 93 93 SE 5 7 29.81 1009 10 16 0.00 0.00
8:53 pm 20:53 Cloudy 68 20 65 18.3 90 90 VRB 3 6 29.81 1010 10 16 0.00 0.00
9:53 pm 21:53 Mostly Clear 66 18.9 62 16.7 87 87 VRB 5 7 29.82 1010 10 16 0.00 0.00
10:39 pm 22:39 Cloudy 66 18.9 63 17.2 90 90 VRB 3 6 29.83 1010 10 16 0.00 0.00
10:53 pm 22:53 Cloudy 66 18.9 63 17.2 90 90 undefined N/A 29.82 1010 10 16 0.00 0.00
11:20 pm 23:20 Partly Cloudy 66 18.9 63 17.2 90 90 VRB 3 6 29.82 1010 10 16 0.00 0.00
11:53 pm 23:53 Mostly Cloudy 65 18.3 62 16.7 90 90 VRB 3 6 29.82 1010 10 16 0.00 0.00

Powered by AerisWeather